Location: Arpaise
(41.0333°N, 14.7333°E)
Time: 01:33:29
(UTC+00:00)

GP-B - Pass Details

Date: 05 July 2020
Orbit: 631 x 635 km, 89.8° (Epoch: 11 August)

Event Time Altitude Azimuth Distance (km) Brightness Sun altitude
Rises 22:05:17 0° 7° (N) 2,938 7.6 -24.8°
Reaches altitude 10° 22:07:35 10° 14° (NNE) 2,025 6.5 -24.9°
Enters shadow 22:11:26 46° 68° (ENE) 855 3.7 -25.1°
